FW3914 Weather Reports


Display with metric or nautical units.
time (UTC)temp
F
wind
direction
speed
MPH
gust
MPH
rain 1hr
in
rain 24hr
in
rain mn
in
humidity
%
barometer
mb
20260902065244 84 241 1.0 6.0 0.00 0.00 0.00 69 1015.8
20260902064740 84 163 2.0 4.0 0.00 0.00 0.00 69 1015.6
20260902064236 84 180 2.0 7.0 0.00 0.00 0.00 69 1015.6
20260902063731 84 184 3.0 7.0 0.00 0.00 0.00 68 1015.6
20260902063226 84 170 1.0 3.0 0.00 0.00 0.00 68 1015.7
20260902062725 84 172 2.0 4.0 0.00 0.00 0.00 69 1015.7
20260902062221 84 240 1.0 5.0 0.00 0.00 0.00 69 1015.8
20260902061719 85 258 0.0 5.0 0.00 0.00 0.00 68 1015.7
20260902061215 85 189 2.0 5.0 0.00 0.00 0.00 69 1015.8
20260902060712 85 187 1.0 5.0 0.00 0.00 0.00 69 1015.6
20260902060207 85 77 3.0 5.0 0.00 0.00 0.00 69 1015.8
20260902055703 85 197 0.0 3.0 0.00 0.00 0.00 68 1015.8
20260902055159 85 207 2.0 4.0 0.00 0.00 0.00 69 1015.7
20260902054654 85 182 3.0 5.0 0.00 0.00 0.00 68 1015.7
20260902054149 85 245 2.0 3.0 0.00 0.00 0.00 68 1015.8
20260902053644 85 184 4.0 5.0 0.00 0.00 0.00 68 1015.5
20260902053139 86 204 3.0 5.0 0.00 0.00 0.00 68 1015.3
20260902052633 86 196 3.0 7.0 0.00 0.00 0.00 68 1015.5
20260902052129 86 301 3.0 4.0 0.00 0.00 0.00 68 1015.7
20260902051627 86 182 1.0 5.0 0.00 0.00 0.00 68 1015.7
20260902051127 86 155 4.0 5.0 0.00 0.00 0.00 68 1015.6
20260902050622 86 244 4.0 5.0 0.00 0.00 0.00 67 1015.3
20260902050117 86 225 2.0 3.0 0.00 0.00 0.00 67 1015.6
20260902045612 86 255 2.0 5.0 0.00 0.00 0.00 66 1015.7
20260902045108 87 190 2.0 5.0 0.00 0.00 0.00 66 1015.5
20260902044608 87 190 2.0 8.0 0.00 0.00 0.00 65 1015.5
20260902044104 87 231 2.0 6.0 0.00 0.00 0.00 64 1015.5
20260902043559 87 243 4.0 5.0 0.00 0.00 0.00 64 1015.5
20260902043054 87 189 2.0 7.0 0.00 0.00 0.00 63 1015.7
20260902042554 87 229 1.0 3.0 0.00 0.00 0.00 63 1015.2
20260902042050 88 244 2.0 7.0 0.00 0.00 0.00 62 1015.5
20260902041549 88 123 3.0 7.0 0.00 0.00 0.00 62 1015.3
20260902041044 88 227 1.0 7.0 0.00 0.00 0.00 61 1015.3
20260902040544 88 266 4.0 7.0 0.00 0.00 0.00 61 1015.1
20260902040039 89 240 2.0 13.0 0.00 0.00 0.00 60 1015.2
20260902035537 89 6 5.0 11.0 0.00 0.00 0.00 58 1015.0
20260902035033 89 319 0.0 8.0 0.00 0.00 0.00 56 1015.0
20260902034532 89 265 2.0 8.0 0.00 0.00 0.00 56 1014.9
20260902034031 89 246 1.0 4.0 0.00 0.00 0.00 56 1015.2
20260902033530 89 296 0.0 3.0 0.00 0.00 0.00 56 1014.7
20260902033026 89 229 0.0 3.0 0.00 0.00 0.00 56 1014.7
20260902032524 90 285 1.0 3.0 0.00 0.00 0.00 56 1014.8
20260902032019 90 346 2.0 3.0 0.00 0.00 0.00 55 1014.8
20260902031514 90 339 0.0 4.0 0.00 0.00 0.00 55 1014.8
20260902031011 90 327 2.0 4.0 0.00 0.00 0.00 54 1014.6
20260902030505 91 48 1.0 3.0 0.00 0.00 0.00 54 1014.7
20260902030004 91 331 1.0 3.0 0.00 0.00 0.00 54 1014.4
20260902025459 91 300 2.0 3.0 0.00 0.00 0.00 54 1014.3
20260902024954 91 337 1.0 3.0 0.00 0.00 0.00 54 1014.5
20260902024449 91 300 2.0 3.0 0.00 0.00 0.00 54 1014.3
20260902023944 91 278 2.0 3.0 0.00 0.00 0.00 54 1014.1
20260902023440 91 180 0.0 4.0 0.00 0.00 0.00 54 1014.2
20260902022939 91 329 0.0 2.0 0.00 0.00 0.00 54 1014.2
20260902022435 91 293 2.0 3.0 0.00 0.00 0.00 54 1014.1
20260902021930 91 260 1.0 3.0 0.00 0.00 0.00 54 1014.0
20260902021425 91 315 0.0 2.0 0.00 0.00 0.00 54 1013.8
20260902020921 92 271 2.0 3.0 0.00 0.00 0.00 54 1013.9
20260902020417 92 237 0.0 2.0 0.00 0.00 0.00 54 1013.9
20260902015912 92 234 2.0 3.0 0.00 0.00 0.00 54 1013.9
20260902015408 92 269 0.0 2.0 0.00 0.00 0.00 53 1013.7
20260902014903 92 250 1.0 2.0 0.00 0.00 0.00 53 1013.6
20260902014400 92 244 2.0 2.0 0.00 0.00 0.00 53 1013.4
20260902013858 93 247 2.0 3.0 0.00 0.00 0.00 52 1013.5
20260902013354 93 311 0.0 2.0 0.00 0.00 0.00 50 1013.4
20260902012849 93 289 1.0 3.0 0.00 0.00 0.00 50 1013.5
20260902012345 93 246 0.0 4.0 0.00 0.00 0.00 49 1013.3
20260902011841 93 142 0.0 4.0 0.00 0.00 0.00 49 1013.4
20260902011340 93 347 0.0 2.0 0.00 0.00 0.00 49 1013.2
20260902010835 93 277 1.0 2.0 0.00 0.00 0.00 49 1013.2
20260902010330 94 303 2.0 3.0 0.00 0.00 0.00 48 1013.3
20260902005829 94 297 2.0 3.0 0.00 0.00 0.00 48 1013.1
20260902005329 95 230 2.0 3.0 0.00 0.00 0.00 48 1013.2
20260902004825 95 263 2.0 3.0 0.00 0.00 0.00 47 1013.1
20260902004319 95 278 1.0 2.0 0.00 0.00 0.00 46 1013.1
20260902003814 95 256 1.0 3.0 0.00 0.00 0.00 46 1013.0
20260902003309 96 277 1.0 3.0 0.00 0.00 0.00 46 1013.2
20260902002805 96 269 0.0 4.0 0.00 0.00 0.00 45 1013.2
20260902002259 96 208 1.0 4.0 0.00 0.00 0.00 45 1013.2
20260902001754 96 290 0.0 3.0 0.00 0.00 0.00 45 1013.2
20260902001250 97 244 3.0 4.0 0.00 0.00 0.00 45 1013.1
20260902000749 97 238 0.0 3.0 0.00 0.00 0.00 45 1013.4
20260902000245 98 240 1.0 3.0 0.00 0.00 0.00 44 1013.4
20260901235744 98 310 3.0 5.0 0.00 0.00 0.00 43 1013.3
20260901235240 99 259 2.0 5.0 0.00 0.00 0.00 42 1013.2
20260901234739 99 293 1.0 8.0 0.00 0.00 0.00 42 1013.2
20260901234234 100 271 2.0 3.0 0.00 0.00 0.00 41 1013.4
20260901233728 99 341 3.0 5.0 0.00 0.00 0.00 41 1013.5
20260901233225 100 293 3.0 6.0 0.00 0.00 0.00 41 1013.5
20260901232725 100 230 3.0 4.0 0.00 0.00 0.00 41 1013.7
20260901232220 100 253 2.0 5.0 0.00 0.00 0.00 42 1013.5
20260901231716 100 239 3.0 4.0 0.00 0.00 0.00 42 1013.5
20260901231212 98 267 0.0 3.0 0.00 0.00 0.00 43 1013.8
20260901230708 98 276 1.0 4.0 0.00 0.00 0.00 43 1013.7
20260901230207 97 248 1.0 4.0 0.00 0.00 0.00 43 1013.7
20260901225703 97 326 0.0 4.0 0.00 0.00 0.00 43 1013.6
20260901225157 97 271 2.0 5.0 0.00 0.00 0.00 43 1013.8
20260901224653 98 164 4.0 6.0 0.00 0.00 0.00 43 1013.8
20260901224149 98 216 3.0 6.0 0.00 0.00 0.00 42 1013.8
20260901223644 98 226 3.0 5.0 0.00 0.00 0.00 43 1013.6
20260901223139 98 211 2.0 5.0 0.00 0.00 0.00 42 1013.7
20260901222636 98 269 3.0 7.0 0.00 0.00 0.00 42 1013.6
20260901222132 98 235 1.0 6.0 0.00 0.00 0.00 42 1013.8
20260901221627 99 275 2.0 7.0 0.00 0.00 0.00 42 1013.8
20260901221123 100 307 1.0 6.0 0.00 0.00 0.00 40 1013.7
20260901220622 102 229 3.0 7.0 0.00 0.00 0.00 38 1013.7
20260901220121 101 234 4.0 7.0 0.00 0.00 0.00 40 1013.7
20260901215620 100 269 0.0 5.0 0.00 0.00 0.00 40 1013.6
20260901215114 99 292 3.0 4.0 0.00 0.00 0.00 41 1013.7
20260901214613 98 223 1.0 2.0 0.00 0.00 0.00 42 1013.9
20260901214113 99 37 3.0 4.0 0.00 0.00 0.00 41 1013.9
20260901213607 99 69 2.0 7.0 0.00 0.00 0.00 41 1013.9
20260901213101 101 341 3.0 6.0 0.00 0.00 0.00 40 1013.9
20260901212601 102 241 3.0 7.0 0.00 0.00 0.00 40 1014.0
20260901212058 102 266 2.0 5.0 0.00 0.00 0.00 38 1013.8
20260901211553 102 39 3.0 7.0 0.00 0.00 0.00 39 1014.2
20260901211049 100 356 2.0 4.0 0.00 0.00 0.00 40 1014.1
20260901210544 100 32 5.0 5.0 0.00 0.00 0.00 42 1013.8
20260901210041 101 223 3.0 5.0 0.00 0.00 0.00 42 1014.1
20260901205535 100 337 3.0 4.0 0.00 0.00 0.00 41 1014.2
20260901205030 99 351 3.0 7.0 0.00 0.00 0.00 42 1014.4
20260901204526 100 22 3.0 8.0 0.00 0.00 0.00 41 1014.3
20260901204021 101 21 3.0 8.0 0.00 0.00 0.00 41 1014.4
20260901203515 101 0 4.0 7.0 0.00 0.00 0.00 41 1014.3
20260901203010 101 305 3.0 8.0 0.00 0.00 0.00 41 1014.5
20260901202505 102 284 0.0 5.0 0.00 0.00 0.00 41 1014.5
20260901202001 100 298 2.0 5.0 0.00 0.00 0.00 42 1014.5
20260901201456 99 142 0.0 5.0 0.00 0.00 0.00 43 1014.7
20260901200950 100 258 3.0 8.0 0.00 0.00 0.00 42 1014.7
20260901200445 98 206 1.0 7.0 0.00 0.00 0.00 43 1014.9
20260901195944 99 247 1.0 4.0 0.00 0.00 0.00 44 1015.0
20260901195443 99 33 3.0 7.0 0.00 0.00 0.00 43 1015.1
20260901194937 100 249 4.0 7.0 0.00 0.00 0.00 43 1014.9
20260901194433 101 280 2.0 5.0 0.00 0.00 0.00 43 1015.1
20260901193929 101 301 3.0 4.0 0.00 0.00 0.00 42 1015.2
20260901193428 102 332 1.0 5.0 0.00 0.00 0.00 42 1015.3
20260901192927 101 242 3.0 5.0 0.00 0.00 0.00 45 1015.5
20260901192424 100 354 4.0 7.0 0.00 0.00 0.00 44 1015.2
20260901191920 99 337 2.0 4.0 0.00 0.00 0.00 44 1015.7
20260901191415 98 12 2.0 3.0 0.00 0.00 0.00 46 1015.6
20260901190911 99 3 4.0 6.0 0.00 0.00 0.00 45 1015.7
20260901190411 99 18 0.0 5.0 0.00 0.00 0.00 45 1015.6
20260901185909 100 12 3.0 5.0 0.00 0.00 0.00 44 1015.8
20260901185409 100 230 1.0 6.0 0.00 0.00 0.00 45 1015.9
20260901184903 99 255 3.0 9.0 0.00 0.00 0.00 46 1016.1
20260901184359 98 48 4.0 7.0 0.00 0.00 0.00 46 1016.2
20260901183854 99 166 0.0 6.0 0.00 0.00 0.00 45 1016.1
20260901183353 99 297 3.0 5.0 0.00 0.00 0.00 44 1016.5
20260901182849 99 260 3.0 6.0 0.00 0.00 0.00 45 1016.5
20260901182350 98 238 0.0 6.0 0.00 0.00 0.00 46 1016.6
20260901181844 98 211 3.0 9.0 0.00 0.00 0.00 45 1016.5
20260901181339 98 253 3.0 4.0 0.00 0.00 0.00 45 1016.6
20260901180838 98 253 4.0 7.0 0.00 0.00 0.00 47 1016.7
20260901180337 99 326 2.0 7.0 0.00 0.00 0.00 44 1016.7
20260901175831 98 337 2.0 6.0 0.00 0.00 0.00 44 1017.0
20260901175325 98 0 0.0 4.0 0.00 0.00 0.00 44 1016.9
20260901174820 98 52 3.0 6.0 0.00 0.00 0.00 44 1017.1
20260901174316 98 246 3.0 6.0 0.00 0.00 0.00 46 1017.1
20260901173811 97 159 5.0 8.0 0.00 0.00 0.00 47 1017.1
20260901173306 96 71 2.0 8.0 0.00 0.00 0.00 48 1017.1
20260901172803 98 217 0.0 4.0 0.00 0.00 0.00 47 1017.4
20260901172304 98 244 2.0 5.0 0.00 0.00 0.00 48 1017.3
20260901171800 97 197 5.0 6.0 0.00 0.00 0.00 49 1017.2
20260901171259 96 238 3.0 5.0 0.00 0.00 0.00 52 1017.4
20260901170758 94 263 3.0 4.0 0.00 0.00 0.00 54 1017.5
20260901170253 93 357 2.0 2.0 0.00 0.00 0.00 54 1017.6
20260901165751 94 312 0.0 2.0 0.00 0.00 0.00 54 1017.8
20260901165246 94 218 1.0 3.0 0.00 0.00 0.00 53 1017.5
20260901164743 93 310 0.0 4.0 0.00 0.00 0.00 53 1017.8
20260901164239 94 168 3.0 5.0 0.00 0.00 0.00 52 1017.8
20260901163734 94 218 0.0 4.0 0.00 0.00 0.00 53 1017.7
20260901163233 93 247 3.0 7.0 0.00 0.00 0.00 54 1017.7
20260901162728 93 235 4.0 8.0 0.00 0.00 0.00 54 1017.8
20260901162227 93 273 3.0 5.0 0.00 0.00 0.00 56 1017.8
20260901161726 94 193 2.0 5.0 0.00 0.00 0.00 53 1017.6
20260901161221 95 211 3.0 6.0 0.00 0.00 0.00 52 1017.5
20260901160717 94 224 3.0 5.0 0.00 0.00 0.00 54 1017.7
20260901160213 93 272 0.0 9.0 0.00 0.00 0.00 55 1017.7
20260901155711 95 206 1.0 6.0 0.00 0.00 0.00 53 1017.7
20260901155207 95 55 3.0 4.0 0.00 0.00 0.00 52 1017.7
20260901154702 93 251 2.0 6.0 0.00 0.00 0.00 55 1017.5
20260901154156 94 245 3.0 5.0 0.00 0.00 0.00 55 1017.6
20260901153652 93 253 2.0 7.0 0.00 0.00 0.00 55 1017.8
20260901153151 93 228 5.0 8.0 0.00 0.00 0.00 55 1017.5
20260901152646 93 215 1.0 6.0 0.00 0.00 0.00 56 1017.7
20260901152144 94 211 3.0 5.0 0.00 0.00 0.00 56 1017.6
20260901151641 93 244 2.0 6.0 0.00 0.00 0.00 56 1017.7
20260901151140 93 254 3.0 6.0 0.00 0.00 0.00 56 1017.6
20260901150639 91 279 2.0 7.0 0.00 0.00 0.00 60 1017.6
20260901150132 92 253 4.0 6.0 0.00 0.00 0.00 59 1017.8
20260901145630 92 356 2.0 4.0 0.00 0.00 0.00 59 1017.8
20260901145130 91 238 1.0 5.0 0.00 0.00 0.00 60 1018.0
20260901144626 91 257 2.0 5.0 0.00 0.00 0.00 60 1018.0
20260901144121 91 240 2.0 5.0 0.00 0.00 0.00 60 1017.8
20260901143616 91 244 2.0 4.0 0.00 0.00 0.00 61 1017.7
20260901143112 89 231 3.0 5.0 0.00 0.00 0.00 62 1017.8
20260901142608 89 249 2.0 4.0 0.00 0.00 0.00 63 1017.7
20260901142107 89 228 0.0 7.0 0.00 0.00 0.00 63 1017.6
20260901141602 89 213 2.0 3.0 0.00 0.00 0.00 64 1017.9
20260901141057 88 277 1.0 4.0 0.00 0.00 0.00 65 1017.9
20260901140555 89 195 1.0 4.0 0.00 0.00 0.00 64 1017.9
20260901140050 88 138 2.0 4.0 0.00 0.00 0.00 65 1017.8
20260901135549 87 194 1.0 4.0 0.00 0.00 0.00 66 1017.8
20260901135045 87 180 2.0 4.0 0.00 0.00 0.00 67 1018.0
20260901134541 86 195 3.0 5.0 0.00 0.00 0.00 68 1018.0
20260901134041 86 228 2.0 4.0 0.00 0.00 0.00 68 1017.8
20260901133540 86 242 3.0 5.0 0.00 0.00 0.00 68 1017.9
20260901133038 86 284 2.0 5.0 0.00 0.00 0.00 69 1017.8
20260901132533 86 322 0.0 5.0 0.00 0.00 0.00 69 1017.7
20260901132032 86 258 1.0 4.0 0.00 0.00 0.00 68 1017.7
20260901131527 85 240 3.0 4.0 0.00 0.00 0.00 70 1017.9
20260901131023 84 248 3.0 5.0 0.00 0.00 0.00 71 1017.9
20260901130522 84 204 2.0 3.0 0.00 0.00 0.00 71 1017.7
20260901130021 84 113 1.0 3.0 0.00 0.00 0.00 71 1017.7
20260901125520 83 216 1.0 3.0 0.00 0.00 0.00 71 1017.4
20260901125015 81 125 1.0 3.0 0.00 0.00 0.00 74 1017.6
20260901124510 81 125 1.0 3.0 0.00 0.00 0.00 74 1017.6
20260901124009 81 197 2.0 4.0 0.00 0.00 0.00 75 1017.3
20260901123505 80 207 2.0 3.0 0.00 0.00 0.00 76 1017.5
20260901123004 80 222 2.0 3.0 0.00 0.00 0.00 76 1017.0
20260901122457 79 238 2.0 4.0 0.00 0.00 0.00 76 1017.2
20260901121956 79 333 0.0 2.0 0.00 0.00 0.00 77 1016.9
20260901121451 79 333 0.0 2.0 0.00 0.00 0.00 76 1017.0
20260901120946 79 245 0.0 2.0 0.00 0.00 0.00 76 1017.0
20260901120441 79 229 0.0 2.0 0.00 0.00 0.00 77 1016.9
20260901115936 79 242 0.0 2.0 0.00 0.00 0.00 76 1016.7
20260901115431 79 271 1.0 2.0 0.00 0.00 0.00 76 1016.9
20260901114929 80 238 0.0 2.0 0.00 0.00 0.00 75 1016.6
20260901114424 80 202 0.0 3.0 0.00 0.00 0.00 75 1016.8
20260901113922 80 180 2.0 3.0 0.00 0.00 0.00 75 1016.6
20260901113421 80 312 0.0 2.0 0.00 0.00 0.00 75 1016.6
20260901112917 80 242 0.0 2.0 0.00 0.00 0.00 75 1016.6
20260901112411 80 213 0.0 3.0 0.00 0.00 0.00 74 1016.6
20260901111906 80 252 1.0 2.0 0.00 0.00 0.00 75 1016.5
20260901111404 80 175 1.0 2.0 0.00 0.00 0.00 75 1016.5
20260901110903 80 199 2.0 2.0 0.00 0.00 0.00 75 1016.5
20260901110359 80 205 0.0 2.0 0.00 0.00 0.00 74 1016.4
20260901105855 80 236 2.0 3.0 0.00 0.00 0.00 74 1016.4
20260901105350 80 222 2.0 3.0 0.00 0.00 0.00 74 1016.1
20260901104846 80 237 0.0 3.0 0.00 0.00 0.00 74 1016.4
20260901104341 80 200 0.0 3.0 0.00 0.00 0.00 74 1016.2
20260901103837 80 242 0.0 3.0 0.00 0.00 0.00 74 1016.4
20260901103336 80 200 2.0 2.0 0.00 0.00 0.00 73 1016.5
20260901102831 81 215 1.0 2.0 0.00 0.00 0.00 73 1016.1
20260901102326 81 201 2.0 3.0 0.00 0.00 0.00 72 1016.5
20260901101821 81 215 2.0 5.0 0.00 0.00 0.00 72 1016.5
20260901101320 81 242 2.0 3.0 0.00 0.00 0.00 72 1016.6
20260901100815 81 237 2.0 3.0 0.00 0.00 0.00 71 1016.4
20260901100310 81 224 0.0 3.0 0.00 0.00 0.00 71 1016.6
20260901095808 82 185 0.0 3.0 0.00 0.00 0.00 71 1016.5
20260901095307 82 191 2.0 3.0 0.00 0.00 0.00 71 1016.4
20260901094801 82 220 0.0 3.0 0.00 0.00 0.00 70 1016.7
20260901094255 82 188 2.0 3.0 0.00 0.00 0.00 70 1016.5
20260901093750 82 240 1.0 3.0 0.00 0.00 0.00 70 1016.6
20260901093249 82 269 0.0 2.0 0.00 0.00 0.00 69 1016.7
20260901092745 82 186 0.0 3.0 0.00 0.00 0.00 69 1016.8
20260901092241 82 186 2.0 3.0 0.00 0.00 0.00 68 1016.5
20260901091731 82 208 0.0 2.0 0.00 0.00 0.00 68 1016.6
20260901091226 82 222 0.0 3.0 0.00 0.00 0.00 68 1016.7
20260901090721 83 238 2.0 3.0 0.00 0.00 0.00 68 1016.6
20260901090216 83 226 0.0 3.0 0.00 0.00 0.00 67 1016.6
20260901085712 83 269 0.0 2.0 0.00 0.00 0.00 66 1016.6
20260901085207 83 180 2.0 3.0 0.00 0.00 0.00 66 1016.5
20260901084704 83 240 0.0 2.0 0.00 0.00 0.00 66 1016.6
20260901084159 83 215 2.0 3.0 0.00 0.00 0.00 66 1016.5
20260901083653 83 269 0.0 2.0 0.00 0.00 0.00 65 1016.3
20260901083152 83 351 0.0 3.0 0.00 0.00 0.00 65 1016.4
20260901082646 83 299 2.0 3.0 0.00 0.00 0.00 65 1016.4
20260901082142 83 328 1.0 3.0 0.00 0.00 0.00 64 1016.2
20260901081637 84 284 1.0 2.0 0.00 0.00 0.00 64 1016.2
20260901081131 84 201 1.0 3.0 0.00 0.00 0.00 63 1016.2
20260901080631 84 206 2.0 3.0 0.00 0.00 0.00 63 1016.2
20260901080130 84 233 0.0 4.0 0.00 0.00 0.00 62 1016.0
20260901075626 84 224 2.0 5.0 0.00 0.00 0.00 62 1016.0
20260901075125 85 220 0.0 5.0 0.00 0.00 0.00 61 1016.2
20260901074625 85 245 2.0 5.0 0.00 0.00 0.00 61 1016.2
20260901074120 85 275 2.0 5.0 0.00 0.00 0.00 60 1016.3
20260901073616 85 201 3.0 3.0 0.00 0.00 0.00 60 1016.3
20260901073111 85 185 0.0 3.0 0.00 0.00 0.00 60 1016.2
20260901072607 85 230 1.0 5.0 0.00 0.00 0.00 60 1016.2
20260901072101 85 172 4.0 5.0 0.00 0.00 0.00 60 1016.0
20260901071556 86 241 1.0 3.0 0.00 0.00 0.00 60 1016.3
20260901071055 86 180 2.0 5.0 0.00 0.00 0.00 60 1016.3
20260901070549 85 170 2.0 4.0 0.00 0.00 0.00 59 1016.0
20260901070045 85 157 1.0 3.0 0.00 0.00 0.00 59 1016.1